Location: Les Jeannots
(43.2262°N, 5.5774°E)
Time: 17:54:52
(UTC+00:00)

NOSS 3-3 (C) - Pass Details

Date: 05 July 2020
Orbit: 824 x 1388 km, 63.4° (Epoch: 03 August)

Event Time Altitude Azimuth Distance (km) Brightness Sun altitude
Rises 20:25:05 0° 186° (S) 3,370 6.5 -10.0°
Reaches altitude 10° 20:27:38 10° 177° (S) 2,473 5.7 -10.3°
Maximum altitude 20:32:43 34° 113° (ESE) 1,435 4.4 -11.0°
Drops below altitude 10° 20:38:18 10° 51° (NE) 2,734 6.3 -11.7°
Sets 20:41:15 0° 43° (NE) 3,777 7.1 -12.1°
